Weather History for CWLY - August, 2013

Change the Weather History Date:

Thursday, August 22, 2013

  Actual Average Record
Temperature  
Mean Temperature 74 °F -  
Max Temperature 95 °F 80 °F 95 °F (2013)
Min Temperature 53 °F 57 °F 51 °F (2015)
Cooling Degree Days 9    
Growing Degree Days 24 (Base 50)    
Moisture  
Dew Point 39 °F    
Average Humidity 31    
Maximum Humidity 54    
Minimum Humidity 13    
Precipitation  
Precipitation 0.00 in - - ()
Sea Level Pressure  
Sea Level Pressure 29.87 in    
Wind  
Wind Speed 3 mph ()    
Max Wind Speed 21 mph    
Max Gust Speed 31 mph    
Visibility 9.0 miles    
Events      
Averages and records for this station are not official NWS values.
T = Trace of Precipitation, MM = Missing Value Source: Averaged Metar Reports

Daily Weather History Graph

Daily Weather History Graph

Search for Another Location

Airport or City:

Trip Planner

Search our weather history database for the weather conditions in past years. The results will help you decide how hot, cold, wet, or windy it might be!

Date:

Astronomy

Aug. 22, 2013 Rise Set
Actual Time 6:06 AM PDT 8:10 PM PDT
Civil Twilight 5:31 AM PDT 8:45 PM PDT
Nautical Twilight 4:47 AM PDT 9:28 PM PDT
Astronomical Twilight 3:58 AM PDT 10:18 PM PDT
Moon 8:36 PM PDT (8/22) 8:18 AM PDT (8/22)
Length of Visible Light 15h 14m
Length of Day
14h 04m
Waning Gibbous, 96% of the Moon is Illuminated
Aug 22
Waning Gibbous
Aug 28
Last Quarter
Sep 5
New
Sep 12
First Quarter
Sep 19
Full

Hourly Weather History & Observations

Time (PDT) Temp. Dew Point Humidity Pressure Visibility Wind Dir Wind Speed Gust Speed Precip Events Conditions
12:00 AM 68.0 °F 37.4 °F 33% 29.97 in 9.0 mi Calm Calm - N/A   Clear
1:00 AM 62.6 °F 39.2 °F 42% 29.98 in 9.0 mi Calm Calm - N/A   Clear
2:00 AM 63 °F 38 °F 28% 29.98 in 9 mi SSW 2.3 mph - -  
2:00 AM 62.6 °F 37.4 °F 39% 29.98 in 9.0 mi Calm Calm - N/A   Clear
3:00 AM 60.8 °F 37.4 °F 42% 29.98 in 9.0 mi Calm Calm - N/A   Clear
4:00 AM 59.0 °F 37.4 °F 45% 29.99 in 9.0 mi Calm Calm - N/A   Clear
5:00 AM 57.2 °F 37.4 °F 48% 29.99 in 9.0 mi Calm Calm - N/A   Clear
6:00 AM 55.4 °F 37.4 °F 51% 29.99 in 9.0 mi Calm Calm - N/A   Clear
7:00 AM 53.6 °F 35.6 °F 51% 30.01 in 9.0 mi Calm Calm - N/A   Clear
8:00 AM 54 °F 37 °F 41% 30.01 in 9 mi SSE 4.6 mph - -  
8:00 AM 53.6 °F 37.4 °F 54% 30.01 in 9.0 mi SSE 4.6 mph - N/A   Clear
9:00 AM 59.0 °F 37.4 °F 45% 29.99 in 9.0 mi SSE 4.6 mph - N/A   Clear
10:00 AM 68.0 °F 39.2 °F 35% 29.96 in 9.0 mi Calm Calm - N/A   Clear
11:00 AM 74 °F 40 °F 18% 29.93 in 9 mi Calm Calm - -  
11:00 AM 73.4 °F 39.2 °F 29% 29.93 in 9.0 mi Calm Calm - N/A   Clear
12:00 PM 78.8 °F 41.0 °F 26% 29.88 in 9.0 mi Variable 2.3 mph - N/A   Clear
1:00 PM 82.4 °F 41.0 °F 23% 29.84 in 9.0 mi Calm Calm - N/A   Clear
2:00 PM 87.8 °F 42.8 °F 21% 29.80 in 9.0 mi South 6.9 mph - N/A   Clear
3:00 PM 91.4 °F 41.0 °F 17% 29.75 in 9.0 mi Variable 3.5 mph - N/A   Clear
4:00 PM 95.0 °F 37.4 °F 13% 29.71 in 9.0 mi SSW 18.4 mph 26.5 mph N/A   Clear
5:00 PM 95.0 °F 37.4 °F 13% 29.69 in 9.0 mi SSW 15.0 mph 23.0 mph N/A   Clear
6:00 PM 93.2 °F 35.6 °F 13% 29.68 in 9.0 mi South 16.1 mph 24.2 mph N/A   Clear
7:00 PM 89.6 °F 33.8 °F 14% 29.69 in 9.0 mi SSW 13.8 mph 21.9 mph N/A   Clear
8:00 PM 86.0 °F 37.4 °F 18% 29.70 in 9.0 mi SSW 13.8 mph 23.0 mph N/A   Clear
9:00 PM 84.2 °F 41.0 °F 22% 29.71 in 9.0 mi South 15.0 mph 28.8 mph N/A   Clear
10:00 PM 82.4 °F 41.0 °F 23% 29.73 in 9.0 mi South 18.4 mph 28.8 mph N/A   Clear
11:00 PM 80.6 °F 42.8 °F 26% 29.73 in 9.0 mi South 20.7 mph 31.1 mph N/A   Clear